Regional Weather Roundup
Issued by NWS Midland/Odessa, TX

Skip options and go directly to product.
Home | Oldest Version | Previous Version | Current Version | All | Text Only | Save Text | Print | Product List | Glossary Off

Skip product version selection by date and time.   

808
ASUS44 KMAF 261910
RWRMAF
MIDLAND AREA WEATHER ROUNDUP
NATIONAL WEATHER SERVICE MIDLAND TX
200 PM CDT TUE JUL 26 2016

...IN SOUTHWEST TEXAS AND SOUTHEAST NEW MEXICO...

CITY           SKY/WX    TMP DP  RH WIND       PRES   REMARKS
ALPINE         MOSUNNY   90  53  28 E12G21    30.19F
ANDREWS        FAIR      92  61  35 E15       30.07F
ARTESIA        SUNNY     88  61  40 E9        30.10F
BIG SPRING     SUNNY     93  64  38 N8        30.05F
CARLSBAD       SUNNY     92  60  34 N7        30.06F
DRYDEN           N/A     99  62  29 NE13      29.95F HX 100
FORT STOCKTON  MOSUNNY   94  62  34 N7        30.03F
GUAD PASS      MOSUNNY   86  57  37 E15G24    30.23F
HOBBS          PTSUNNY   90  57  33 NE10G16   30.11F
MARFA          PTSUNNY   87  55  33 NE14G20   30.17F
MIDLAND AIRPK  MOSUNNY   95  60  31 E12       30.05F
MIDLAND INTL   PTSUNNY   92  62  36 NE10      30.05F
ODESSA         MOSUNNY   94  61  33 E16G22    30.06F
PECOS          PTSUNNY   93  60  32 N7        30.01F
PRESIDIO       FAIR      99  54  22 E9G17     29.97F
SEMINOLE       PTSUNNY   91  57  31 CALM      30.09F
SNYDER           N/A     92  64  39 E7        30.03F
WINK           MOSUNNY   96  60  30 MISG      30.01F
$$
...OTHER STATIONS IN TEXAS...

CITY           SKY/WX    TMP DP  RH WIND       PRES   REMARKS
ABILENE        SUNNY     93  65  39 VRB5      30.00F
AMARILLO       SUNNY     94  57  28 E8G16     30.08F
AUSTIN         PTSUNNY   89  74  60 E6        29.92F
BROWNSVILLE    MOSUNNY   95  72  47 S18G29    29.90F HX 103
CORPUS CHRISTI CLOUDY    89  75  63 SE13      29.91F
DALLAS FTW     PTSUNNY   93  70  46 E6        29.93F
DEL RIO        MOSUNNY   96  66  37 VRB6      29.87F
EL PASO        MOSUNNY   93  55  27 SW8       30.08F
HOUSTON INT    LGT RAIN  86  73  65 S8        29.92F
LUBBOCK        MOSUNNY   95  57  27 VRB3      30.07F
SAN ANGELO     SUNNY     96  64  34 NE9       29.98F
SAN ANTONIO    LGT RAIN  80  73  79 SE18      29.95S
WACO           PTSUNNY   92  70  48 SE7       29.94F
WICHITA FALLS  NOT AVBL
$$
...OTHER LOCATIONS IN NEW MEXICO...

CITY           SKY/WX    TMP DP  RH WIND       PRES   REMARKS
ALAMAGORDO     MOSUNNY   86  54  32 NW6       30.14F
ALBUQUERQUE    MOSUNNY   85  56  37 VRB6      30.21F
CANNON AFB     CLOUDY    87  60  40 VRB7      30.14F
CLOVIS         CLOUDY    86  55  35 NW5       30.14F
HOLLOMAN AFB   CLOUDY    87  53  31 VRB3      30.11F
ROSWELL        SUNNY     89  59  36 NE7       30.09F
RUIDOSO          N/A     77  50  38 NE5       30.33F
SANTA FE       MOSUNNY   83  50  31 VRB5      30.25F
TRUTH OR CONSE SUNNY     89  55  31 MISG      30.15F
TUCUMCARI      SUNNY     88  57  34 S5        30.10F
$$

USA.gov is the U.S. government's official web portal to all federal, state and local government web resources and services.